Find Starlink 30572

NORAD ID: 58114 Int'l Des: 2023-161 Owner: SPXS Country: US Constellation: starlink operational
LEOCIRCULAR

現在のビュー

3D地球を読み込み中...

About Starlink 30572

Starlink 30572 (NORAD 58114) is a starlink constellation satellite (v2 mini) launched Oct 21, 2023 by SPXS of US. It operates in LEO, CIRCULAR orbit with a mass of 730.00 kg.

次回通過

Passes for default location (London). Set your location on the main map for personalized predictions.

高度履歴

Loading altitude history...

軌道要素

1 58114U 23161T 26236.90945868 -.00000836 00000-0 -13620-4 0 9995
2 58114 53.1607 103.6843 0001441 101.5506 258.5659 15.34397525160186
Epoch: Aug 24, 2026 • Age: 14 hours

現在のステータス

高度 467.7 km
遠地点 / 近地点 N/A
速度 7.63 km/s
衛星直下点 -16.56°S, 62.69°W
打ち上げ日 Oct 21, 2023
運用期間 2.8 years
タイプ internet

技術仕様

分類 Payload
質量 730.00 kg
乾燥質量 700.00 kg
総質量 730.00 kg
長さ 0.30 m
直径 4.10 m
スパン 29.00 m
形状 Box + pan
製造者 SPXS
バスタイプ Starlink V2M
フェーズステータス In Orbit
所有者/国 SPXS/US

Most Searched